Regional Weather Roundup
Issued by NWS

Home | Current Version | Previous Version | Graphics & Text | Print | Product List | Glossary On
Versions: 1 2 3 4 5 6 7 8 9 10 11 12 13 14 15 16 17 18 19 20 21 22 23 24 25 26 27 28 29 30 31 32 33 34 35 36 37 38 39 40 41 42 43 44 45 46 47 48 49 50
517
ASUS45 KBOU 260807
RWRCO

WEATHER ROUNDUP FOR COLORADO
NATIONAL WEATHER SERVICE DENVER/BOULDER CO
100 AM MST SUN FEB 26 2017

NOTE: "FAIR" INDICATES FEW OR NO CLOUDS BELOW 12000 FEET WITH NO
SIGNIFICANT WEATHER AND/OR OBSTRUCTIONS TO VISIBILITY.

COZ001>005-013-030-031-260900-
...NORTHWEST COLORADO...

CITY           SKY/WX    TMP DP  RH WIND       PRES   REMARKS
CRAIG          CLOUDY    17  11  77 CALM      29.90S
HAYDEN         CLOUDY    16   7  67 NW3       29.88S
MEEKER         FAIR       4   0  83 NE5       29.90S WCI  -5
MOUNT WERNER   NOT AVBL
STEAMBOAT SPGS CLOUDY    14  12  92 SW3       29.86S
WALDEN         NOT AVBL
$$

COZ006>008-011-260900-
...WEST CENTRAL VALLEYS...

CITY           SKY/WX    TMP DP  RH WIND       PRES   REMARKS
GRAND JUNCTION FAIR      22  13  68 CALM      29.92S
MONTROSE       CLOUDY    27  16  63 S10       29.93S WCI  17
EAGLE          FAIR      16   8  71 SE3       29.91R
RIFLE          FAIR      20  12  71 SW8       29.93R WCI  10
DELTA          MOCLDY    26  16  65 CALM      29.93R
NUCLA          CLOUDY    30  14  51 CALM      29.95S
$$

COZ017>023-064>068-260900-
...SOUTHWEST COLORADO...

CITY           SKY/WX    TMP DP  RH WIND       PRES   REMARKS
DURANGO        FAIR      27   9  46 SW7       29.85S WCI  19
CORTEZ         MOCLDY    27  18  69 CALM      29.89R
PAGOSA SPRINGS CLOUDY    25   8  49 S3        29.84S
TELLURIDE      LGT SNOW  15  13  94 W5        29.85S WCI   7
WOLF CREEK PAS CLOUDY     5   3  92 SW15G22   29.78S WCI -13
$$

COZ009-010-012-014-032>034-037-058>063-260900-
...CENTRAL COLORADO...

CITY           SKY/WX    TMP DP  RH WIND       PRES   REMARKS
ASPEN          MOCLDY    14   9  80 W3        29.83S
BUENA VISTA    MOCLDY    18   5  55 NW5       29.77F WCI  11
COPPER MTN     CLOUDY     3  -6  66 MISG      29.63F
BERTHOUD PASS  LGT SNOW  -8 -17  65 NW46G58   29.50R VSB 1   WCI -41
COTTONWOOD PAS FAIR      16   0  48 NW6G22    29.71S WCI   7
GUNNISON       FAIR      14   9  80 N3        29.86R
KREMMLING      FAIR      14   9  79 CALM      29.85S
LEADVILLE      MOCLDY     5  -3  69 N6        29.73S WCI  -6
MONARCH PASS   CLOUDY     1  -2  85 W30G39    29.75S WCI -24
SALIDA         FAIR      23   5  46 SW16G22   29.87S WCI   9
SUNLIGHT       NOT AVBL
WILKERSON PASS FAIR       3   0  85 W17G38    29.58F WCI -17
$$

COZ069>075-260900-
...SAN LUIS VALLEY/SANGRE DE CRISTO MOUNTAINS...

CITY           SKY/WX    TMP DP  RH WIND       PRES   REMARKS
ALAMOSA        CLOUDY    24  12  60 NW7       29.81R WCI  16
LA VETA PASS   CLOUDY    12   7  79 SW17G29   29.72F WCI  -5
SAGUACHE       FAIR      19   9  63 NW13      29.83R WCI   7
$$

COZ035-036-038>040-260900-
...NORTHERN COLORADO FRONT RANGE...

CITY           SKY/WX    TMP DP  RH WIND       PRES   REMARKS
DENVER INTL AP FAIR      23   4  44 SW9       29.77R WCI  13
DMNS CITY PARK   N/A     28  -2  27 NW5       29.78S WCI  23
AURORA         PTCLDY    23   1  39 SW7       29.78R WCI  14
FRONT RANGE AP FAIR      21   9  58 W6        29.78R WCI  14
ERIE MUNI ARPT FAIR      28   3  34 N5        29.78S WCI  22
BOULDER MUN AP FAIR      27   9  46 SW3       29.77R
CENTENNIAL     FAIR      17   5  59 VRB5      29.77R WCI  10
BROOMFIELD     FAIR      28   1  31 NW3       29.77S
FORT COLLINS   FAIR      21   7  54 VRB5      29.80R WCI  15
LONGMONT       FAIR      28   4  36 N7        29.80F WCI  21
$$

COZ041-046-047-076>085-087-088-260900-
...PIKES PEAK/PALMER DIVIDE AND SOUTHERN FOOTHILLS...

CITY           SKY/WX    TMP DP  RH WIND       PRES   REMARKS
COLO. SPRINGS  FAIR      19  -2  39 NE13      29.76S WCI   6
A. F. ACADEMY  FAIR      24   1  36 CALM      29.75S
SCHRIEVER AFB  FAIR      21   0  40 N5        29.77F WCI  14
ELLICOTT       NOT AVBL
FALCON         FAIR      22   1  38 W10       29.76S WCI  12
FORT CARSON    FAIR      26   1  33 SE7       29.76R WCI  19
LIMON          FAIR       3   0  87 N5        29.80S WCI  -6
MONUMENT HILL  FAIR      14   1  57 W9        29.75F WCI   2
TRINIDAD       FAIR      21  -2  36 W3        29.81S
$$

COZ042>045-048>051-090-091-260900-
...NORTHEAST COLORADO...

CITY           SKY/WX    TMP DP  RH WIND       PRES   REMARKS
GREELEY ARPT   FAIR      16  10  77 E5        29.82S WCI   9
AKRON          FAIR      21  11  65 SE6       29.82R WCI  13
BURLINGTON     FAIR      17   5  59 SE6       29.83F WCI   9
WRAY           NOT AVBL
STERLING       FAIR      19  14  79 NW6       29.84S WCI  11
HOLYOKE        FAIR      27  19  74 W7        29.85S WCI  19
FORT MORGAN    FAIR      18  12  79 N7        29.83S WCI   8
$$

COZ086-089-092>099-260900-
...SOUTHEAST COLORADO...

CITY           SKY/WX    TMP DP  RH WIND       PRES   REMARKS
PUEBLO         FAIR      26   2  35 SW8       29.80S WCI  18
LA JUNTA       FAIR      24   5  44 N3        29.83S
LAMAR          FAIR      17   4  56 SW6       29.81S WCI   9
SPRINGFIELD      N/A     19   2  47 W9        29.80S WCI   8
$$




USA.gov is the U.S. government's official web portal to all federal, state and local government web resources and services.